Regional Weather Roundup
Issued by NWS Lake Charles, LA

Home | Current Version | Previous Version | Text Only | Print | Product List | Glossary On
Versions: 1 2 3 4 5 6 7 8 9 10 11 12 13 14 15 16 17 18 19 20 21 22 23 24 25 26 27 28 29 30 31 32 33 34 35 36 37 38 39 40 41 42 43 44 45 46 47 48 49 50
000
ASUS44 KLCH 310510
RWRLCH
RWRLCH
REGIONAL WEATHER ROUNDUP
NATIONAL WEATHER SERVICE LAKE CHARLES LA
1200 AM CDT FRI JUL 31 2015

Note: "fair" indicates few or no clouds below 12,000 feet with no
significant weather and/or obstructions to visibility.


ACROSS SOUTHEAST TEXAS

CITY           SKY/WX    TMP DP  RH WIND       PRES   REMARKS
BEAUMONT       CLOUDY    81  75  82 NE3       30.01F HAZE
BEAUMONT CITY    N/A     80  76  86 NW3       30.03S
ORANGE         CLOUDY    78  78 100 CALM      30.03F
JASPER         CLOUDY    78  76  93 E3        30.04F
$$

ACROSS CENTRAL LOUISIANA

CITY           SKY/WX    TMP DP  RH WIND       PRES   REMARKS
LEESVILLE      MOCLDY    78  73  85 NW6       30.02F
FULLERTON        N/A     77  75  93 CALM      30.01S
ALEXANDRIA INT MOCLDY    77  77 100 CALM      30.00F FOG
ESLER FIELD    MOCLDY    79  76  90 CALM      30.01F
DERIDDER         N/A     76  75  95 CALM      30.05F
OAKDALE        CLOUDY    77  75  93 NW3       30.01S
OPELOUSAS        N/A    N/A N/A N/A CALM      30.00S
$$

ACROSS SOUTHWEST AND SOUTH CENTRAL LOUISIANA

CITY           SKY/WX    TMP DP  RH WIND       PRES   REMARKS
SULPHUR        CLOUDY    77  76  97 NW5       30.02S
LAKE CHARLES   CLOUDY    78  75  90 CALM      30.01S
CHENNAULT INT  CLOUDY    76  75  97 CALM      30.02S
CAMERON PHI    CLEAR     77  75  94 CALM      30.04R
DEQUINCY         N/A     75  75 100 NW5       30.04S
JENNINGS         N/A     77  76  96 W3        30.00S
LAFAYETTE      MOCLDY    78  74  87 N5        29.99F
NEW IBERIA     MOCLDY    77  75  93 N3        29.99F
ABBEVILLE        N/A     75  74  99 NW3       29.98F
PATTERSON      CLOUDY    75  72  88 W3        29.99F
SALT POINT       N/A     77  75  93 VRB3      29.96F
$$

SELECTED SITES ACROSS THE REGION

CITY           SKY/WX    TMP DP  RH WIND       PRES   REMARKS
HOUSTON BUSH   MOCLDY    81  75  82 E9        30.03R
HOUSTON HOBBY  MOCLDY    86  75  69 E8        30.02R
GALVESTON      MOCLDY    85  76  74 SE14      30.04S
COLLEGE STAT   PTCLDY    84  72  67 E5        30.02R
CONROE         MOCLDY    78  74  87 CALM      30.05R
HUNTSVILLE     MOCLDY    81  74  79 CALM      30.04S
LUFKIN         CLOUDY    75  73  93 CALM      30.02F
SHREVEPORT     MOCLDY    78  72  81 CALM      30.04S
MONROE         MOCLDY    77  69  76 N5        30.03F
NATCHEZ MS     MOCLDY    75  73  94 CALM      30.01F
BATON ROUGE    PTCLDY    77  74  90 W3        29.99S
N.O. INTL ARPT MOCLDY    79  73  82 NW5       29.97F
SLIDELL        MOCLDY    76  76 100 CALM      29.96S
$$

MARINE REPORTS

STATION/POSITION TIME  TEMP    WIND        PRES    VSBY  WAVE
                       AIR SEA DIR/SP/G                  HT/PER
                 (UTC) (F)     (DEG/KT/KT) (MB)    (MI)  (FT/S)
BUOY 30 S HIGH I 0450   85 87  120/ 14/ 17 1016.3R         2/ 3
SEA RIM ST PARK  0500   84     130/  6/  7 1017.1S
PORT ARTHUR      0400      89   70/  5/  8 1016.7R
SABINE PASS N    0400   81 89   90/  4/  6 1016.5R
TEXAS POINT      NOT AVBL
CALCASIEU PASS   0400   82 89  140/  7/ 10 1015.2S
LK CHARLES BEACH 0400   78 91                N/A
MARSH ISLAND     0400   83     330/  8/ 10   N/A           0
FRESH WATER LOCK 0400   74 89  300/  4/  4 1015.1F
AMERADA PASS     NOT AVBL
$$


USA.gov is the U.S. government's official web portal to all federal, state and local government web resources and services.